"Timestamp","TZ","WindDir_Mean (deg)","WindSpd_Mean (km/h)","WindSpd_Min (km/h)","WindSpd_Max (km/h)","Temp_Mean (deg)","RH_Mean (%)","MSLP_Mean (hPa)","Rain_Acc (mm)","Rain_Intensity (mm/h)","Hail_Acc (hits/cm2)","Hail_Intensity (hits/cm2hr)","Solar_Mean (W/m2)"
2020/03/09 00:00:00.000,n,124,10.8,9.36,12.96,23.1,67.6,1016.52,0,0,0,0,0.028763
2020/03/09 00:01:00.000,n,138,7.2,5.04,8.28,23.1,67.7,1016.52,0,0,0,0,0.027847
2020/03/09 00:02:00.000,n,142,6.12,5.76,6.84,23.1,67.6,1016.62,0,0,0,0,0.02697
2020/03/09 00:03:00.000,n,151,4.68,3.96,5.4,23.1,67.8,1016.62,0,0,0,0,0.026131
2020/03/09 00:04:00.005,n,137,5.04,4.32,6.48,23.1,68.1,1016.62,0,0,0,0,0.02697
2020/03/09 00:05:00.003,n,159,1.8,1.44,2.52,23.1,68.5,1016.62,0,0,0,0,0.026131
2020/03/09 00:06:00.001,n,179,6.12,5.04,6.84,23.1,68,1016.62,0,0,0,0,0.025253
2020/03/09 00:07:00.000,n,150,9.72,9,11.16,23.1,67.7,1016.52,0,0,0,0,0.024376
2020/03/09 00:08:00.010,n,109,5.04,3.6,5.4,23,67.9,1016.52,0,0,0,0,0.021744
2020/03/09 00:09:00.006,n,150,7.56,6.48,8.28,23,67.9,1016.52,0,0,0,0,0.030441
2020/03/09 00:10:00.000,n,154,3.6,3.24,3.96,23,68,1016.52,0,0,0,0,0.031281
2020/03/09 00:11:00.000,n,143,7.56,6.84,8.64,23,67.8,1016.52,0,0,0,0,0.028687
2020/03/09 00:12:00.000,n,150,7.56,6.84,8.28,23,68,1016.52,0,0,0,0,0.028687
2020/03/09 00:13:00.000,n,148,6.84,5.4,9.36,23,67.7,1016.52,0,0,0,0,0.027847
2020/03/09 00:14:00.000,n,131,12.6,12.24,13.32,23,67.5,1016.52,0,0,0,0,0.024338
2020/03/09 00:15:00.006,n,121,8.64,8.28,9,23,67.6,1016.52,0,0,0,0,0.028687
2020/03/09 00:16:00.002,n,132,4.68,2.88,6.48,23,67.5,1016.52,0,0,0,0,0.026093
2020/03/09 00:17:00.000,n,179,2.16,0.36,3.96,23.1,67.6,1016.52,0,0,0,0,0.027847
2020/03/09 00:18:00.013,n,148,10.440002,9,11.88,23.1,67.3,1016.52,0,0,0,0,0.02697
2020/03/09 00:19:00.000,n,157,6.12,4.68,8.28,23.1,67.5,1016.52,0,0,0,0,0.025215
2020/03/09 00:20:00.000,n,150,6.48,5.4,7.2,23.1,67.5,1016.52,0,0,0,0,0.028687
2020/03/09 00:21:00.005,n,141,3.96,2.52,4.68,23.1,67.4,1016.52,0,0,0,0,0.025215
2020/03/09 00:22:00.004,n,111,3.24,2.52,5.04,23.1,67.5,1016.42,0,0,0,0,0.028687
2020/03/09 00:23:00.000,n,157,7.56,6.12,9.72,23.1,67.1,1016.42,0,0,0,0,0.02697
2020/03/09 00:24:00.000,n,125,5.4,3.96,6.12,23.1,67.2,1016.42,0,0,0,0,0.025215
2020/03/09 00:25:00.010,n,149,14.04,11.88,15.48,23.1,66.6,1016.42,0,0,0,0,0.026093
2020/03/09 00:26:00.007,n,174,9,7.56,10.08,23.2,66.5,1016.42,0,0,0,0,0.029564
2020/03/09 00:27:00.004,n,166,10.08,9,11.52,23.2,66,1016.42,0,0,0,0,0.02697
2020/03/09 00:28:00.000,n,134,10.8,8.64,12.96,23.2,66.1,1016.42,0,0,0,0,0.027847
2020/03/09 00:29:00.000,n,145,10.440002,9.36,11.16,23.2,66.1,1016.42,0,0,0,0,0.02697
2020/03/09 00:30:00.000,n,73,5.4,5.04,6.12,23.3,66.199996,1016.42,0,0,0,0,0.029602
2020/03/09 00:31:00.006,n,158,4.68,3.6,5.04,23.3,66.199996,1016.42,0,0,0,0,0.033112
2020/03/09 00:32:00.003,n,146,11.16,10.440002,11.88,23.3,65.9,1016.42,0,0,0,0,0.027885
2020/03/09 00:33:00.000,n,69,6.12,5.04,6.84,23.3,66.1,1016.42,0,0,0,0,0.032196
2020/03/09 00:34:00.000,n,156,5.4,4.68,5.4,23.3,66,1016.42,0,0,0,0,0.031357
2020/03/09 00:35:00.011,n,88,1.8,1.44,2.88,23.3,66,1016.42,0,0,0,0,0.02697
2020/03/09 00:36:00.009,n,122,13.32,12.6,14.76,23.3,65.800004,1016.32,0,0,0,0,0.033112
2020/03/09 00:37:00.000,n,110,1.44,0.36,1.8,23.3,65.800004,1016.32,0,0,0,0,0.028763
2020/03/09 00:38:00.002,n,147,12.24,9.72,14.04,23.3,65.5,1016.32,0,0,0,0,0.030479
2020/03/09 00:39:00.000,n,156,7.56,6.12,10.08,23.3,65.5,1016.32,0,0,0,0,0.033989
2020/03/09 00:40:00.000,n,120,3.96,3.24,4.68,23.3,65.699996,1016.32,0,0,0,0,0.029602
2020/03/09 00:41:00.000,n,99,7.2,5.4,8.28,23.3,65.699996,1016.32,0,0,0,0,0.026131
2020/03/09 00:42:00.008,n,134,3.6,3.24,4.32,23.3,65.6,1016.32,0,0,0,0,0.026131
2020/03/09 00:43:00.005,n,168,7.56,5.76,8.64,23.3,65.5,1016.32,0,0,0,0,0.025253
2020/03/09 00:44:00.002,n,117,6.84,5.4,8.64,23.3,65.5,1016.32,0,0,0,0,0.026131
2020/03/09 00:45:00.000,n,129,9.36,8.28,11.52,23.3,65.5,1016.32,0,0,0,0,0.027885
2020/03/09 00:46:00.000,n,159,4.32,1.8,5.4,23.3,65.4,1016.32,0,0,0,0,0.029602
2020/03/09 00:47:00.000,n,145,3.96,2.52,4.68,23.3,65.5,1016.32,0,0,0,0,0.02697
2020/03/09 00:48:00.000,n,149,9,6.48,10.08,23.3,65.5,1016.32,0,0,0,0,0.027885
2020/03/09 00:49:00.005,n,114,10.440002,9.36,12.24,23.3,65.4,1016.32,0,0,0,0,0.026131
2020/03/09 00:50:00.002,n,158,10.08,7.2,12.24,23.3,65.4,1016.32,0,0,0,0,0.028763
2020/03/09 00:51:00.000,n,131,6.48,1.8,9.72,23.3,65.300004,1016.22,0,0,0,0,0.031357
2020/03/09 00:52:00.012,n,127,12.6,11.52,13.32,23.3,65.300004,1016.22,0,0,0,0,0.028763
2020/03/09 00:53:00.010,n,122,11.52,8.64,12.6,23.3,65.4,1016.22,0,0,0,0,0.028763
2020/03/09 00:54:00.007,n,115,5.4,2.52,8.28,23.3,65.4,1016.22,0,0,0,0,0.024376
2020/03/09 00:55:00.000,n,117,4.68,3.6,5.4,23.3,65.4,1016.22,0,0,0,0,0.02697
2020/03/09 00:56:00.001,n,127,0.72,0.36,1.44,23.3,65.4,1016.22,0,0,0,0,0.025253
2020/03/09 00:57:00.000,n,133,11.52,10.8,12.6,23.3,65.5,1016.22,0,0,0,0,0.025253
2020/03/09 00:58:00.000,n,146,5.04,4.32,6.48,23.3,65.5,1016.22,0,0,0,0,0.02697
2020/03/09 00:59:00.000,n,141,6.48,5.04,8.28,23.3,65.5,1016.12,0,0,0,0,0.026131
2020/03/09 01:00:00.006,n,161,6.48,1.08,9.36,23.3,65.5,1016.12,0,0,0,0,0.030479
2020/03/09 01:01:00.005,n,150,9.36,5.04,11.52,23.3,65.5,1016.12,0,0,0,0,0.024376
2020/03/09 01:02:00.002,n,138,13.32,12.96,14.04,23.3,65.4,1016.02,0,0,0,0,0.028763
2020/03/09 01:03:00.000,n,134,5.04,2.88,6.12,23.2,65.5,1016.02,0,0,0,0,0.02697
2020/03/09 01:04:00.000,n,109,4.32,3.6,5.04,23.2,65.6,1016.02,0,0,0,0,0.020027
2020/03/09 01:05:00.000,n,156,5.76,5.04,6.12,23.2,65.6,1016.02,0,0,0,0,0.02697
2020/03/09 01:06:00.000,n,145,9.72,5.76,13.32,23.2,65.5,1016.02,0,0,0,0,0.026131
2020/03/09 01:07:00.004,n,121,5.4,1.44,11.16,23.2,65.6,1016.02,0,0,0,0,0.026131
2020/03/09 01:08:00.002,n,133,10.440002,8.64,12.24,23.2,65.699996,1016.02,0,0,0,0,0.02697
2020/03/09 01:09:00.000,n,135,7.92,7.2,9,23.2,65.6,1016.02,0,0,0,0,0.021782
2020/03/09 01:10:00.012,n,135,2.88,2.88,3.6,23.2,65.6,1016.02,0,0,0,0,0.019188
2020/03/09 01:11:00.009,n,160,2.88,1.08,6.84,23.2,65.6,1016.02,0,0,0,0,0.028763
2020/03/09 01:12:00.005,n,167,16.2,15.48,16.919998,23.2,65.5,1016.02,0,0,0,0,0.025253
2020/03/09 01:13:00.000,n,150,9,6.84,12.24,23.2,65.6,1016.02,0,0,0,0,0.029602
2020/03/09 01:14:00.000,n,131,7.56,6.12,8.28,23.2,65.699996,1015.92,0,0,0,0,0.02697
2020/03/09 01:15:00.000,n,136,5.4,3.6,6.12,23.2,65.800004,1015.92,0,0,0,0,0.025253
2020/03/09 01:16:00.000,n,163,12.6,11.16,13.68,23.2,65.800004,1015.92,0,0,0,0,0.021782
2020/03/09 01:17:00.000,n,146,9.72,7.2,10.8,23.2,65.9,1015.92,0,0,0,0,0.02697
2020/03/09 01:18:00.006,n,114,5.04,3.96,6.48,23.2,65.699996,1015.82,0,0,0,0,0.026131
2020/03/09 01:19:00.003,n,106,7.2,3.6,8.28,23.2,65.800004,1015.82,0,0,0,0,0.027885
2020/03/09 01:20:00.000,n,122,8.64,7.56,11.88,23.2,65.800004,1015.82,0,0,0,0,0.023537
2020/03/09 01:21:00.014,n,150,9,4.68,10.8,23.2,65.800004,1015.72,0,0,0,0,0.021782
2020/03/09 01:22:00.000,n,137,11.88,9.72,14.4,23.2,65.800004,1015.72,0,0,0,0,0.023537
2020/03/09 01:23:00.000,n,132,7.2,6.48,9,23.2,65.9,1015.82,0,0,0,0,0.020027
2020/03/09 01:24:00.000,n,145,6.84,5.04,9.36,23.2,66,1015.82,0,0,0,0,0.025253
2020/03/09 01:25:00.002,n,140,10.08,9.72,10.440002,23.2,66,1015.82,0,0,0,0,0.019188
2020/03/09 01:26:00.000,n,135,6.12,5.4,6.84,23.2,66.1,1015.82,0,0,0,0,0.022659
2020/03/09 01:27:00.000,n,124,7.56,4.32,9.72,23.2,66.1,1015.82,0,0,0,0,0.02697
2020/03/09 01:28:00.011,n,141,9.72,8.64,10.08,23.2,66.199996,1015.82,0,0,0,0,0.019188
2020/03/09 01:29:00.008,n,137,7.2,6.48,7.92,23.2,66.300004,1015.82,0,0,0,0,0.023537
2020/03/09 01:30:00.004,n,155,10.440002,9.72,11.52,23.2,66.300004,1015.82,0,0,0,0,0.023537
2020/03/09 01:31:00.000,n,173,3.96,3.24,4.32,23.2,66.4,1015.82,0,0,0,0,0.021782
2020/03/09 01:32:00.000,n,150,12.6,10.8,13.68,23.2,66.4,1015.72,0,0,0,0,0.022659
2020/03/09 01:33:00.000,n,159,12.24,11.16,12.96,23.1,66.4,1015.82,0,0,0,0,0.019188
2020/03/09 01:34:00.000,n,140,6.48,5.04,8.64,23.1,66.5,1015.82,0,0,0,0,0.024376
2020/03/09 01:35:00.007,n,148,6.84,5.4,9,23.1,66.6,1015.82,0,0,0,0,0.023537
2020/03/09 01:36:00.004,n,165,11.88,10.8,14.04,23.1,66.6,1015.82,0,0,0,0,0.019188
2020/03/09 01:37:00.001,n,129,3.24,1.8,5.04,23.1,66.699996,1015.82,0,0,0,0,0.021782
2020/03/09 01:38:00.000,n,119,4.32,3.6,5.04,23.1,66.699996,1015.82,0,0,0,0,0.019188
2020/03/09 01:39:00.011,n,154,8.28,7.56,9.36,23.1,66.699996,1015.82,0,0,0,0,0.020027
2020/03/09 01:40:00.000,n,160,6.84,6.12,7.92,23.1,66.800004,1015.82,0,0,0,0,0.020027
2020/03/09 01:41:00.000,n,165,4.32,1.8,6.48,23.1,66.800004,1015.82,0,0,0,0,0.023537
2020/03/09 01:42:00.001,n,143,9.72,9,10.8,23.1,66.9,1015.82,0,0,0,0,0.023537
2020/03/09 01:43:00.000,n,95,5.04,3.6,5.76,23.1,67,1015.72,0,0,0,0,0.022659
2020/03/09 01:44:00.000,n,150,5.4,4.68,6.84,23.1,67,1015.72,0,0,0,0,0.02697
2020/03/09 01:45:00.008,n,164,11.88,9.72,12.6,23.1,67.1,1015.72,0,0,0,0,0.025253
2020/03/09 01:46:00.006,n,136,11.88,10.440002,12.96,23.1,67.1,1015.72,0,0,0,0,0.022659
2020/03/09 01:47:00.003,n,151,11.16,8.64,12.96,23.1,67.2,1015.62,0,0,0,0,0.022659
2020/03/09 01:48:00.001,n,133,7.56,6.84,8.28,23.1,67.2,1015.62,0,0,0,0,0.022659
2020/03/09 01:49:00.000,n,123,2.52,2.16,2.88,23.1,67.2,1015.62,0,0,0,0,0.022659
2020/03/09 01:50:00.000,n,176,3.24,2.52,3.96,23.1,67.3,1015.62,0,0,0,0,0.022659
2020/03/09 01:51:00.000,n,196,2.88,2.16,4.68,23.1,67.4,1015.62,0,0,0,0,0.022659
2020/03/09 01:52:00.005,n,157,10.08,8.64,11.16,23.1,67.4,1015.62,0,0,0,0,0.020905
2020/03/09 01:53:00.002,n,161,6.48,5.04,7.92,23.1,67.5,1015.62,0,0,0,0,0.020027
2020/03/09 01:54:00.000,n,137,4.32,1.08,6.12,23,67.5,1015.62,0,0,0,0,0.020905
2020/03/09 01:55:00.012,n,134,5.4,3.24,7.92,23,67.6,1015.62,0,0,0,0,0.019188
2020/03/09 01:56:00.010,n,139,7.2,5.76,9,23,67.6,1015.62,0,0,0,0,0.022659
2020/03/09 01:57:00.006,n,147,7.2,6.12,8.28,23,67.7,1015.62,0,0,0,0,0.019188
2020/03/09 01:58:00.000,n,140,9.72,7.92,10.8,23,67.8,1015.62,0,0,0,0,0.020905
2020/03/09 01:59:00.000,n,151,9.36,8.64,10.08,23,67.8,1015.62,0,0,0,0,0.020905
2020/03/09 02:00:00.000,n,137,9,6.84,10.440002,23,67.8,1015.62,0,0,0,0,0.020027
2020/03/09 02:01:00.000,n,159,13.68,11.88,14.04,23,67.8,1015.62,0,0,0,0,0.021782
2020/03/09 02:02:00.007,n,133,11.88,10.440002,15.12,23,67.8,1015.62,0,0,0,0,0.023537
2020/03/09 02:03:00.004,n,128,4.68,3.24,5.4,23,68,1015.62,0,0,0,0,0.024376
2020/03/09 02:04:00.001,n,153,5.04,3.6,6.12,23,68.1,1015.62,0,0,0,0,0.020905
2020/03/09 02:05:00.000,n,245,3.96,1.44,5.4,23,68.1,1015.62,0,0,0,0,0.024376
2020/03/09 02:06:00.010,n,154,5.4,4.32,7.2,23,68,1015.52,0,0,0,0,0.021782
2020/03/09 02:07:00.000,n,175,5.4,2.88,6.84,23,68.1,1015.52,0,0,0,0,0.023537
2020/03/09 02:08:00.000,n,141,6.84,6.48,7.56,23,68.2,1015.52,0,0,0,0,0.021782
2020/03/09 02:09:00.002,n,149,5.76,3.6,8.28,23,68.2,1015.52,0,0,0,0,0.025253
2020/03/09 02:10:00.000,n,146,6.12,5.4,7.2,23,68.3,1015.52,0,0,0,0,0.027885
2020/03/09 02:11:00.000,n,134,4.68,3.96,5.76,23,68.4,1015.52,0,0,0,0,0.031319
2020/03/09 02:12:00.007,n,162,2.52,1.44,3.6,23,68.5,1015.52,0,0,0,0,0.032196
2020/03/09 02:13:00.004,n,152,2.88,2.16,3.96,23,68.5,1015.42,0,0,0,0,0.035706
2020/03/09 02:14:00.001,n,169,6.12,4.68,6.84,23,68.5,1015.42,0,0,0,0,0.030479
2020/03/09 02:15:00.015,n,139,9.72,8.28,10.8,23,68.5,1015.32,0,0,0,0,0.036545
2020/03/09 02:16:00.000,n,119,7.92,7.2,9.36,23,68.5,1015.32,0,0,0,0,0.034828
2020/03/09 02:17:00.000,n,177,9,4.32,10.8,23,68.5,1015.32,0,0,0,0,0.035706
2020/03/09 02:18:00.000,n,140,4.68,3.96,5.4,22.9,68.6,1015.32,0,0,0,0,0.034828
2020/03/09 02:19:00.002,n,140,11.88,11.16,12.6,22.9,68.6,1015.32,0,0,0,0,0.033112
2020/03/09 02:20:00.000,n,144,5.04,3.6,6.12,22.9,68.7,1015.32,0,0,0,0,0.031319
2020/03/09 02:21:00.000,n,125,9,8.64,9.36,22.9,68.8,1015.32,0,0,0,0,0.033112
2020/03/09 02:22:00.010,n,194,2.88,2.16,3.6,22.9,68.8,1015.22,0,0,0,0,0.030479
2020/03/09 02:23:00.007,n,135,3.6,2.52,4.32,22.9,68.8,1015.22,0,0,0,0,0.028725
2020/03/09 02:24:00.003,n,135,10.8,9.36,11.88,22.9,68.8,1015.22,0,0,0,0,0.031319
2020/03/09 02:25:00.001,n,141,3.96,1.8,5.76,22.9,68.9,1015.22,0,0,0,0,0.030479
2020/03/09 02:26:00.000,n,178,6.84,5.04,7.56,22.9,69,1015.22,0,0,0,0,0.030479
2020/03/09 02:27:00.000,n,155,9.72,8.64,11.16,22.9,68.9,1015.22,0,0,0,0,0.031319
2020/03/09 02:28:00.000,n,212,1.08,0.72,1.44,22.9,68.8,1015.22,0,0,0,0,0.032196
2020/03/09 02:29:00.006,n,158,2.88,1.8,4.32,22.9,69,1015.22,0,0,0,0,0.028725
2020/03/09 02:30:00.003,n,139,3.6,1.8,6.12,22.9,69,1015.22,0,0,0,0,0.031319
2020/03/09 02:31:00.000,n,141,10.8,6.84,12.24,22.9,68.8,1015.22,0,0,0,0,0.033112
2020/03/09 02:32:00.013,n,135,11.52,11.16,12.24,22.9,68.9,1015.22,0,0,0,0,0.030479
2020/03/09 02:33:00.010,n,149,6.48,5.76,6.84,22.9,69,1015.22,0,0,0,0,0.033951
2020/03/09 02:34:00.000,n,149,7.2,3.96,9.36,22.8,69.1,1015.22,0,0,0,0,0.034828
2020/03/09 02:35:00.000,n,147,9.72,9.36,10.440002,22.8,68.6,1015.22,0,0,0,0,0.033112
2020/03/09 02:36:00.000,n,146,10.08,9,11.16,22.8,68.8,1015.22,0,0,0,0,0.031319
2020/03/09 02:37:00.000,n,99,5.76,5.4,6.12,22.8,68.9,1015.22,0,0,0,0,0.033112
2020/03/09 02:38:00.000,n,158,6.48,5.04,8.64,22.8,68.9,1015.22,0,0,0,0,0.035706
2020/03/09 02:39:00.008,n,146,7.2,6.48,8.28,22.8,69,1015.22,0,0,0,0,0.031319
2020/03/09 02:40:00.005,n,130,3.6,2.16,4.32,22.8,69,1015.32,0,0,0,0,0.024376
2020/03/09 02:41:00.003,n,123,1.8,0.72,2.88,22.8,69.1,1015.32,0,0,0,0,0.030479
2020/03/09 02:42:00.002,n,168,5.04,3.96,6.48,22.9,69.1,1015.32,0,0,0,0,0.030479
2020/03/09 02:43:00.000,n,171,3.24,0.72,5.04,22.8,69.1,1015.32,0,0,0,0,0.027885
2020/03/09 02:44:00.000,n,155,5.4,1.08,7.2,22.8,69,1015.32,0,0,0,0,0.033951
2020/03/09 02:45:00.000,n,139,3.6,2.88,3.6,22.8,69.1,1015.22,0,0,0,0,0.031319
2020/03/09 02:46:00.007,n,159,3.6,3.24,3.96,22.8,69.1,1015.22,0,0,0,0,0.026131
2020/03/09 02:47:00.004,n,141,3.6,3.24,3.96,22.8,69.1,1015.22,0,0,0,0,0.029602
2020/03/09 02:48:00.001,n,165,10.08,9.36,10.440002,22.8,68.8,1015.12,0,0,0,0,0.029602
2020/03/09 02:49:00.000,n,136,9,6.48,10.8,22.8,69,1015.22,0,0,0,0,0.028725
2020/03/09 02:50:00.013,n,155,9,8.28,9.72,22.8,69,1015.12,0,0,0,0,0.028725
2020/03/09 02:51:00.009,n,148,5.76,4.68,6.48,22.8,69,1015.12,0,0,0,0,0.025253
2020/03/09 02:52:00.000,n,139,5.76,4.32,7.56,22.8,69.1,1015.12,0,0,0,0,0.031319
2020/03/09 02:53:00.003,n,150,11.88,11.52,12.96,22.8,69,1015.12,0,0,0,0,0.029602
2020/03/09 02:54:00.000,n,147,13.32,10.440002,15.12,22.8,68.9,1015.02,0,0,0,0,0.030479
2020/03/09 02:55:00.000,n,149,9,7.92,10.8,22.8,68.9,1015.12,0,0,0,0,0.036545
2020/03/09 02:56:00.000,n,135,3.6,2.16,5.04,22.8,68.9,1015.12,0,0,0,0,0.027885
2020/03/09 02:57:00.009,n,92,1.44,1.08,1.44,22.8,69.1,1015.02,0,0,0,0,0.02697
2020/03/09 02:58:00.000,n,130,3.96,0.72,8.28,22.8,69.1,1015.02,0,0,0,0,0.030479
2020/03/09 02:59:00.004,n,156,6.12,5.04,6.84,22.8,69.3,1015.02,0,0,0,0,0.030479
2020/03/09 03:00:00.010,n,92,7.92,6.84,9,22.8,69.1,1015.02,0,0,0,0,0.027885
2020/03/09 03:01:00.000,n,140,9,6.84,9.72,22.8,69,1015.02,0,0,0,0,0.030479
2020/03/09 03:02:00.000,n,140,6.12,3.96,7.56,22.8,69,1015.02,0,0,0,0,0.031319
2020/03/09 03:03:00.000,n,119,3.6,2.52,6.48,22.8,69.2,1015.02,0,0,0,0,0.024376
2020/03/09 03:04:00.000,n,140,3.6,2.88,5.04,22.7,69.2,1015.02,0,0,0,0,0.029602
2020/03/09 03:05:00.005,n,124,3.96,2.88,5.76,22.7,69.2,1014.92,0,0,0,0,0.026131
2020/03/09 03:06:00.010,n,125,9,6.12,10.08,22.7,68.6,1014.92,0,0,0,0,0.030479
2020/03/09 03:07:00.000,n,227,2.52,1.8,2.88,22.7,69,1015.02,0,0,0,0,0.025253
2020/03/09 03:08:00.005,n,200,4.32,3.6,4.68,22.7,68.8,1015.02,0,0,0,0,0.023537
2020/03/09 03:09:00.011,n,112,2.88,1.8,3.96,22.7,69,1015.02,0,0,0,0,0.027885
2020/03/09 03:10:00.000,n,145,6.12,5.04,7.2,22.7,68.9,1015.02,0,0,0,0,0.025253
2020/03/09 03:11:00.000,n,182,2.16,0.72,5.4,22.7,68.9,1015.02,0,0,0,0,0.02697
2020/03/09 03:12:00.000,n,162,7.2,6.48,7.92,22.7,68.7,1015.02,0,0,0,0,0.029602
2020/03/09 03:13:00.001,n,105,8.28,4.32,14.04,22.8,68.6,1015.02,0,0,0,0,0.023537
2020/03/09 03:14:00.007,n,151,6.84,5.4,7.92,22.8,68.6,1015.02,0,0,0,0,0.02697
2020/03/09 03:15:00.000,n,145,1.8,1.08,3.96,22.8,68.6,1015.12,0,0,0,0,0.028725
2020/03/09 03:16:00.001,n,336,1.08,0.72,1.8,22.8,68.7,1015.12,0,0,0,0,0.032196
2020/03/09 03:17:00.007,n,121,2.88,2.16,3.6,22.8,68.6,1015.12,0,0,0,0,0.023537
2020/03/09 03:18:00.012,n,135,0.72,0.36,1.08,22.8,68.6,1015.12,0,0,0,0,0.030479
2020/03/09 03:19:00.000,n,171,5.04,4.68,5.76,22.8,68.5,1015.12,0,0,0,0,0.029602
2020/03/09 03:20:00.000,n,181,6.48,5.76,6.84,22.8,68.4,1015.12,0,0,0,0,0.027885
2020/03/09 03:21:00.000,n,172,7.56,6.84,8.64,22.8,68.3,1015.12,0,0,0,0,0.030479
2020/03/09 03:22:00.001,n,176,5.76,5.04,6.84,22.8,68.4,1015.12,0,0,0,0,0.031319
2020/03/09 03:23:00.006,n,151,5.04,4.68,5.76,22.8,68.4,1015.12,0,0,0,0,0.033112
2020/03/09 03:24:00.000,n,162,8.28,7.92,9,22.8,68.5,1015.12,0,0,0,0,0.027885
2020/03/09 03:25:00.001,n,187,5.4,4.32,6.12,22.8,68.6,1015.12,0,0,0,0,0.02697
2020/03/09 03:26:00.007,n,193,2.16,1.44,2.52,22.8,68.6,1015.12,0,0,0,0,0.026131
2020/03/09 03:27:00.013,n,107,3.24,1.08,6.12,22.8,68.5,1015.12,0,0,0,0,0.030479
2020/03/09 03:28:00.001,n,156,5.04,3.24,7.56,22.8,68.5,1015.02,0,0,0,0,0.028725
2020/03/09 03:29:00.000,n,144,10.08,9,11.16,22.8,68.5,1015.02,0,0,0,0,0.028725
2020/03/09 03:30:00.000,n,198,5.76,3.96,6.12,22.8,68.5,1015.02,0,0,0,0,0.032196
2020/03/09 03:31:00.001,n,145,8.64,7.2,9.72,22.8,68.3,1015.02,0,0,0,0,0.026131
2020/03/09 03:32:00.007,n,132,4.68,3.96,6.48,22.8,68.5,1015.12,0,0,0,0,0.029602
2020/03/09 03:33:00.000,n,159,5.04,4.68,5.4,22.8,68.6,1015.12,0,0,0,0,0.02697
2020/03/09 03:34:00.001,n,130,2.52,0.72,3.96,22.8,68.4,1015.12,0,0,0,0,0.024376
2020/03/09 03:35:00.007,n,170,2.16,0.72,3.24,22.8,68.4,1015.12,0,0,0,0,0.027885
2020/03/09 03:36:00.012,n,137,6.84,6.12,7.56,22.8,68.4,1015.12,0,0,0,0,0.030479
2020/03/09 03:37:00.000,n,133,4.32,2.52,5.4,22.8,68.6,1015.12,0,0,0,0,0.02697
2020/03/09 03:38:00.000,n,132,5.4,4.32,6.84,22.8,68.6,1015.12,0,0,0,0,0.026131
2020/03/09 03:39:00.000,n,208,4.68,2.88,6.12,22.8,68.7,1015.12,0,0,0,0,0.029602
2020/03/09 03:40:00.001,n,162,4.68,3.96,5.4,22.8,68.6,1015.12,0,0,0,0,0.029602
2020/03/09 03:41:00.006,n,206,3.6,3.6,4.32,22.8,68.7,1015.12,0,0,0,0,0.032196
2020/03/09 03:42:00.011,n,158,6.48,4.32,8.28,22.8,68.6,1015.12,0,0,0,0,0.030479
2020/03/09 03:43:00.000,n,143,3.6,2.52,4.32,22.8,68.7,1015.12,0,0,0,0,0.032196
2020/03/09 03:44:00.005,n,147,5.04,2.52,7.92,22.8,68.5,1015.12,0,0,0,0,0.033112
2020/03/09 03:45:00.010,n,175,5.4,4.32,5.76,22.8,68.6,1015.12,0,0,0,0,0.032196
2020/03/09 03:46:00.000,n,140,12.24,10.8,13.32,22.8,68.6,1015.12,0,0,0,0,0.028725
2020/03/09 03:47:00.000,n,171,4.68,3.96,6.12,22.7,68.7,1015.12,0,0,0,0,0.030479
2020/03/09 03:48:00.000,n,148,1.08,0.72,1.44,22.7,68.8,1015.12,0,0,0,0,0.033112
2020/03/09 03:49:00.000,n,138,7.56,6.48,7.92,22.7,68.8,1015.12,0,0,0,0,0.031319
2020/03/09 03:50:00.005,n,107,4.32,3.6,5.04,22.7,68.8,1015.22,0,0,0,0,0.02697
2020/03/09 03:51:00.010,n,73,1.44,0.72,4.32,22.7,68.8,1015.12,0,0,0,0,0.032196
2020/03/09 03:52:00.000,n,149,8.64,7.92,9.72,22.7,68.9,1015.22,0,0,0,0,0.029602
2020/03/09 03:53:00.004,n,168,9.72,8.64,10.440002,22.7,68.9,1015.22,0,0,0,0,0.028725
2020/03/09 03:54:00.009,n,157,3.96,3.24,4.32,22.7,68.9,1015.22,0,0,0,0,0.025253
2020/03/09 03:55:00.000,n,150,5.4,4.32,7.2,22.7,69,1015.22,0,0,0,0,0.029602
2020/03/09 03:56:00.004,n,99,1.44,1.08,2.52,22.7,69,1015.22,0,0,0,0,0.027885
2020/03/09 03:57:00.000,n,151,4.68,4.32,5.4,22.7,69.1,1015.12,0,0,0,0,0.02697
2020/03/09 03:58:00.000,n,164,9.72,8.64,10.440002,22.7,69.1,1015.12,0,0,0,0,0.030479
2020/03/09 03:59:00.003,n,144,8.64,7.92,9.36,22.7,69.1,1015.12,0,0,0,0,0.027885
2020/03/09 04:00:00.009,n,188,2.16,1.8,2.52,22.7,69.2,1015.12,0,0,0,0,0.025253
2020/03/09 04:01:00.013,n,154,6.48,3.24,7.92,22.7,69.1,1015.02,0,0,0,0,0.02697
2020/03/09 04:02:00.001,n,162,6.84,4.68,8.64,22.7,69.1,1015.02,0,0,0,0,0.025253
2020/03/09 04:03:00.007,n,157,6.12,5.76,6.84,22.7,69.2,1015.02,0,0,0,0,0.031319
2020/03/09 04:04:00.000,n,141,8.28,6.84,9,22.6,69.2,1015.12,0,0,0,0,0.028725
2020/03/09 04:05:00.002,n,150,5.4,2.16,6.84,22.6,69.1,1015.12,0,0,0,0,0.025253
2020/03/09 04:06:00.000,n,164,10.08,8.64,10.8,22.6,69,1015.12,0,0,0,0,0.029602
2020/03/09 04:07:00.000,n,168,11.16,8.64,12.96,22.6,69.1,1015.12,0,0,0,0,0.029602
2020/03/09 04:08:00.003,n,152,10.8,10.440002,11.52,22.6,69.1,1015.12,0,0,0,0,0.027885
2020/03/09 04:09:00.009,n,149,4.68,3.6,6.12,22.6,69.1,1015.12,0,0,0,0,0.027885
2020/03/09 04:10:00.000,n,119,8.64,3.6,11.16,22.6,69,1015.12,0,0,0,0,0.028725
2020/03/09 04:11:00.002,n,142,10.8,10.440002,11.16,22.6,68.8,1015.12,0,0,0,0,0.026131
2020/03/09 04:12:00.008,n,149,5.4,4.32,6.84,22.6,68.9,1015.12,0,0,0,0,0.029602
2020/03/09 04:13:00.000,n,111,3.96,3.6,5.4,22.6,69,1015.12,0,0,0,0,0.02697
2020/03/09 04:14:00.002,n,152,4.68,3.6,5.04,22.6,69,1015.12,0,0,0,0,0.028725
2020/03/09 04:15:00.000,n,185,6.12,5.4,7.2,22.6,69.1,1015.12,0,0,0,0,0.028725
2020/03/09 04:16:00.000,n,166,5.04,3.6,6.12,22.6,69.1,1015.22,0,0,0,0,0.02697
2020/03/09 04:17:00.001,n,104,2.88,0.36,3.96,22.7,69.1,1015.22,0,0,0,0,0.026131
2020/03/09 04:18:00.007,n,151,7.2,6.12,7.92,22.7,69,1015.22,0,0,0,0,0.028725
2020/03/09 04:19:00.011,n,138,6.48,4.68,7.92,22.7,69,1015.22,0,0,0,0,0.026131
2020/03/09 04:20:00.000,n,205,5.04,3.6,6.12,22.6,69.1,1015.22,0,0,0,0,0.02697
2020/03/09 04:21:00.005,n,176,3.6,1.08,6.12,22.6,69.1,1015.32,0,0,0,0,0.029602
2020/03/09 04:22:00.000,n,189,8.28,7.92,9,22.6,69.1,1015.32,0,0,0,0,0.028725
2020/03/09 04:23:00.000,n,195,11.16,10.440002,11.88,22.6,68.8,1015.22,0,0,0,0,0.021744
2020/03/09 04:24:00.005,n,163,11.88,11.16,12.24,22.6,68.9,1015.22,0,0,0,0,0.024376
2020/03/09 04:25:00.000,n,171,5.76,1.44,6.84,22.6,68.9,1015.22,0,0,0,0,0.025253
2020/03/09 04:26:00.000,n,166,6.12,3.96,6.84,22.7,68.9,1015.32,0,0,0,0,0.027885
2020/03/09 04:27:00.004,n,166,4.32,2.88,6.12,22.7,68.9,1015.32,0,0,0,0,0.029602
2020/03/09 04:28:00.010,n,245,2.88,1.8,3.6,22.7,68.9,1015.42,0,0,0,0,0.02697
2020/03/09 04:29:00.000,n,173,4.68,3.24,6.84,22.7,68.8,1015.42,0,0,0,0,0.025253
2020/03/09 04:30:00.004,n,189,5.04,4.32,5.76,22.7,68.8,1015.42,0,0,0,0,0.021744
2020/03/09 04:31:00.000,n,199,7.92,6.48,8.64,22.7,68.7,1015.52,0,0,0,0,0.024376
2020/03/09 04:32:00.000,n,182,8.64,8.28,9,22.7,68.7,1015.52,0,0,0,0,0.024376
2020/03/09 04:33:00.005,n,196,8.28,6.84,9.36,22.7,68.7,1015.52,0,0,0,0,0.022659
2020/03/09 04:34:00.000,n,188,8.28,7.92,9,22.7,68.6,1015.52,0,0,0,0,0.023537
2020/03/09 04:35:00.000,n,186,11.16,10.440002,12.6,22.7,68.4,1015.52,0,0,0,0,0.027885
2020/03/09 04:36:00.004,n,166,8.28,7.2,9,22.7,68.5,1015.52,0,0,0,0,0.024376
2020/03/09 04:37:00.010,n,186,6.48,5.04,7.92,22.7,68.6,1015.52,0,0,0,0,0.021744
2020/03/09 04:38:00.015,n,188,6.48,5.76,8.28,22.7,68.6,1015.52,0,0,0,0,0.024376
2020/03/09 04:39:00.003,n,181,6.48,5.76,6.84,22.7,68.6,1015.62,0,0,0,0,0.023537
2020/03/09 04:40:00.000,n,167,6.84,5.76,7.56,22.7,68.7,1015.62,0,0,0,0,0.022659
2020/03/09 04:41:00.000,n,174,6.12,5.4,7.2,22.7,68.7,1015.62,0,0,0,0,0.023537
2020/03/09 04:42:00.002,n,129,6.48,4.68,9.72,22.7,68.7,1015.62,0,0,0,0,0.017433
2020/03/09 04:43:00.007,n,179,7.2,6.84,7.92,22.7,68.8,1015.62,0,0,0,0,0.01915
2020/03/09 04:44:00.000,n,151,3.24,2.52,3.6,22.7,68.9,1015.62,0,0,0,0,0.020905
2020/03/09 04:45:00.001,n,194,8.28,7.92,8.64,22.7,68.8,1015.62,0,0,0,0,0.023537
2020/03/09 04:46:00.006,n,196,6.84,6.48,7.2,22.7,68.8,1015.72,0,0,0,0,0.025253
2020/03/09 04:47:00.012,n,198,10.8,9.36,12.6,22.7,68.7,1015.72,0,0,0,0,0.022659
2020/03/09 04:48:00.000,n,181,10.08,9.72,10.440002,22.7,68.7,1015.72,0,0,0,0,0.020905
2020/03/09 04:49:00.000,n,184,7.56,7.2,8.28,22.6,69,1015.72,0,0,0,0,0.018311
2020/03/09 04:50:00.000,n,212,4.68,3.96,5.4,22.6,69,1015.72,0,0,0,0,0.020905
2020/03/09 04:51:00.000,n,139,2.88,1.44,3.96,22.6,69.1,1015.72,0,0,0,0,0.025253
2020/03/09 04:52:00.005,n,159,6.84,6.12,7.92,22.6,69.1,1015.72,0,0,0,0,0.024376